Regional Weather Roundup
Issued by NWS Lake Charles, LA

Home | Current Version | Previous Version | Text Only | Print | Product List | Glossary On
Versions: 1 2 3 4 5 6 7 8 9 10 11 12 13 14 15 16 17 18 19 20 21 22 23 24 25 26 27 28
000
ASUS44 KLCH 231610
RWRLCH
REGIONAL WEATHER ROUNDUP
NATIONAL WEATHER SERVICE LAKE CHARLES LA
1100 AM CDT SUN APR 23 2017

Note: "fair" indicates few or no clouds below 12,000 feet with no
significant weather and/or obstructions to visibility.


ACROSS SOUTHEAST TEXAS

CITY           SKY/WX    TMP DP  RH WIND       PRES   REMARKS
BEAUMONT       PTSUNNY   65  47  52 N12G21    30.06F
BEAUMONT CITY  FAIR      63  46  53 NW10G18   30.08F
ORANGE         PTSUNNY   63  49  60 N9        30.08S
JASPER           N/A     62  49  62 N8        30.10R
$$

ACROSS CENTRAL LOUISIANA

CITY           SKY/WX    TMP DP  RH WIND       PRES   REMARKS
LEESVILLE      CLOUDY    59  46  63 NW8       30.05R
FULLERTON      CLOUDY    58  47  66 VRB5      30.02S
ALEXANDRIA INT CLOUDY    59  47  64 N13       30.02S
ESLER FIELD    CLOUDY    60  47  61 N10G16    30.03R
DERIDDER       CLOUDY    60  45  57 NW12      30.07S
OAKDALE        CLOUDY    58  47  66 N10G17    30.04S
OPELOUSAS      CLOUDY    58  49  72 NW9G18    30.03R
$$

ACROSS SOUTHWEST AND SOUTH CENTRAL LOUISIANA

CITY           SKY/WX    TMP DP  RH WIND       PRES   REMARKS
SULPHUR        PTSUNNY   62  47  58 N14G20    30.06S
LAKE CHARLES   MOSUNNY   63  47  55 N15G23    30.04S
CHENNAULT INT  NOT AVBL
CAMERON PHI    PTSUNNY   61  48  63 N16G24    30.03F
DEQUINCY       CLOUDY    60  47  61 NW13G20   30.06S
JENNINGS       CLOUDY    58  48  70 N10G16    30.04S
LAFAYETTE      PTSUNNY   65  51  60 NW16      30.01S
NEW IBERIA     CLOUDY    63  50  62 N16       30.00S
ABBEVILLE      PTSUNNY   63  54  72 N14       30.01S
PATTERSON      CLOUDY    60  54  80 NW8       29.99R
SALT POINT       N/A     60  52  74 N10G16    29.98R
$$

SELECTED SITES ACROSS THE REGION

CITY           SKY/WX    TMP DP  RH WIND       PRES   REMARKS
HOUSTON BUSH   MOSUNNY   63  45  51 N16G23    30.11S
HOUSTON HOBBY  MOSUNNY   63  45  51 N15       30.10S
GALVESTON      SUNNY     64  49  57 N17G25    30.10S
COLLEGE STAT   SUNNY     64  45  49 N16G25    30.14S
CONROE         MOSUNNY   61  45  55 N14G20    30.11F
HUNTSVILLE     MOSUNNY   60  44  55 N9        30.13S
LUFKIN         PTSUNNY   59  46  62 NW10G17   30.10S
SHREVEPORT     PTSUNNY   61  48  62 NW10      30.07F
MONROE         CLOUDY    56  49  77 N12       30.04S
NATCHEZ MS     CLOUDY    57  50  77 N10G17    30.02R
BATON ROUGE    CLOUDY    62  52  69 N7        29.99R
N.O. INTL ARPT CLOUDY    62  56  80 NW12G20   29.95R
SLIDELL        CLOUDY    61  57  87 N13G20    29.94R
$$

MARINE REPORTS

STATION/POSITION TIME  SKY/WX   TEMP    WIND        PRES    VSBY
                                AIR SEA DIR/SP/G
                 (UTC)          (F)     (DEG/KT/KT) (MB)    (MI)
BUOY 30 S HIGH I 1450            58 75  330/ 19/ 25 1018.0
WVE H/P(F/S)=  4/ 4

SEA RIM ST PARK  1600            60     350/ 12/ 15 1018.6F
PORT ARTHUR      1542            58 75   10/ 10/ 15 1018.3F
SABINE PASS N    1542            58 76  360/ 11/ 16 1019.6S
TEXAS POINT      NOT AVBL
CALCASIEU PASS   1548            58 74  360/ 14/ 20   N/A
LK CHARLES BEACH 1548            60 73              1017.8F
MARSH ISLAND     1500            57                   N/A
FRESH WATER LOCK 1548            60 76  310/ 14/ 18 1015.9F
AMERADA PASS     1548            60 68  310/ 12/ 15 1015.0R
$$




USA.gov is the U.S. government's official web portal to all federal, state and local government web resources and services.